User: anonymous   Login
Location: Unspecified
(0.0000°N, 0.0000°E)
Time: 14:14:21
(UTC+00:00)
Language:

UNICUBESAT - Orbit

View from above orbital plane
View from above orbital plane
View from above satellite
View from above satellite

Ground track
Ground track

The orbit data is extracted from the following two-line orbital elements,

1 38085U 12006J   15047.13271005  .15174231  50628-5  38163-3 0  9993
2 38085 069.4022 049.8202 0017770 344.8867 016.3100 16.44194733160691
Epoch (UTC): 16 February 2015 03:11:06
Eccentricity: 0.0017770
inclination: 69.4022°
perigee height: 143 km
apogee height: 166 km
right ascension of ascending node: 49.8202°
argument of perigee: 344.8867°
revolutions per day: 16.44194733
mean anomaly at epoch: 16.3100°
orbit number at epoch: 16069

The dashed part of the orbit path shows where the satellite is in the earth's shadow,  

DLR